This demonstration page uses our WeatherBlox Daily Observations layout. Learn more.

Left ArrowRight Arrow

30.21309, -93.2044

Hourly Observations for July 25, 2022

Temp ( °F °C ) Dew Point ( °F °C ) Humidity (%) Winds ( mph kmh ) Pressure ( in mb ) Visibility ( mi km ) Precip ( " mm )
12:15 am 00:15 Clear 78 25.3 75 24 93 93 SSE 5 7 30.04 1017 10 16 0.00 0.00
12:35 am 00:35 Clear 78 25.3 75 23.9 92 92 SSE 3 6 30.04 1017 10 16 0.00 0.00
12:55 am 00:55 Clear 77 24.9 75 23.7 93 93 S 6 9 30.04 1017 10 16 0.00 0.00
1:15 am 01:15 Clear 77 25.1 75 23.9 93 93 SSE 5 7 30.04 1017 10 16 0.00 0.00
1:35 am 01:35 Clear 77 24.8 74 23.6 93 93 SSE 6 9 30.03 1017 10 16 0.00 0.00
1:55 am 01:55 Clear 77 25 75 23.8 93 93 S 6 9 30.03 1017 10 16 0.00 0.00
2:15 am 02:15 Clear 78 25.3 75 23.9 92 92 S 5 7 30.02 1017 10 16 0.00 0.00
2:35 am 02:35 Clear 77 24.8 74 23.4 92 92 S 6 9 30.02 1017 10 16 0.00 0.00
2:55 am 02:55 Clear 76 24.6 74 23.4 93 93 SSE 3 6 30.02 1017 10 16 0.00 0.00
3:15 am 03:15 Clear 77 24.8 74 23.6 93 93 SSE 3 6 30.02 1017 10 16 0.00 0.00
3:35 am 03:35 Clear 77 25.1 75 23.7 92 92 Calm 30.02 1017 10 16 0.00 0.00
3:55 am 03:55 Mostly Cloudy 78 25.4 75 23.7 90 90 Calm 30.02 1017 10 16 0.00 0.00
4:15 am 04:15 Partly Cloudy 78 25.5 75 23.9 91 91 Calm 30.02 1017 10 16 0.00 0.00
4:35 am 04:35 Mostly Cloudy 78 25.4 75 23.7 90 90 Calm 30.01 1016 10 16 0.00 0.00
4:55 am 04:55 Partly Cloudy 77 24.8 74 23.6 93 93 Calm 30.01 1016 10 16 0.00 0.00
5:15 am 05:15 Clear 76 24.5 74 23.4 94 94 Calm 30.02 1017 10 16 0.00 0.00
5:35 am 05:35 Clear 76 24.7 74 23.4 93 93 Calm 30.02 1017 10 16 0.00 0.00
6:00 am 06:00 Mostly Clear 79 26 75 24 89 89 Calm 30.02 1017 10 16 0.00 0.00
6:50 am 06:50 Mostly Sunny 75 24 73 23 94 94 Calm 30.04 1017 10 16 0.00 0.00
7:55 am 07:55 Mostly Sunny 81 27 77 25 89 89 Calm 30.06 1018 10 16 0.00 0.00
8:55 am 08:55 Mostly Sunny 84 29 77 25 79 79 Calm 30.07 1018 10 16 0.00 0.00
9:45 am 09:45 Mostly Cloudy 86 30 75 24 70 70 WNW 7 11 30.08 1019 10 16 0.00 0.00
10:50 am 10:50 Mostly Cloudy 88 31 73 23 62 62 VRB 6 9 30.08 1019 10 16 0.00 0.00
11:45 am 11:45 Mostly Cloudy 90 32 75 24 63 63 NNW 5 7 30.08 1019 10 16 0.00 0.00
12:55 pm 12:55 Mostly Cloudy 91 33 75 24 59 59 ENE 8 13 30.06 1018 10 16 0.00 0.00
1:45 pm 13:45 Mostly Cloudy 91 33 73 23 56 56 SSE 8 13 30.04 1017 10 16 0.00 0.00
2:51 pm 14:51 Mostly Cloudy 91 33 75 24 59 59 SSE 10 17 30.03 1017 10 16 0.00 0.00
3:48 pm 15:48 Partly Cloudy with Showers 90 32 75 24 63 63 S 14 22 30.03 1017 10 16 0.00 0.00
4:48 pm 16:48 Partly Cloudy 90 32 75 24 63 63 S 10 17 30.01 1016 10 16 0.00 0.00
5:55 pm 17:55 Partly Cloudy 90 32 75 24 63 63 S 14 22 30.00 1016 10 16 0.00 0.00
6:58 pm 18:58 Partly Cloudy 88 31 75 24 66 66 S 10 17 29.99 1016 10 16 0.00 0.00
7:52 pm 19:52 Partly Cloudy 86 30 73 23 66 66 S 8 13 29.99 1016 10 16 0.00 0.00
8:51 pm 20:51 Mostly Clear 81 27 75 24 84 84 SSE 7 11 30.01 1016 10 16 0.00 0.00
9:54 pm 21:54 Mostly Clear 79 26 75 24 89 89 SSE 6 9 30.03 1017 10 16 0.00 0.00
10:15 pm 22:15 Clear 79 26.2 75 24.1 88 88 SSE 7 11 30.03 1017 10 16 0.00 0.00
10:35 pm 22:35 Clear 80 26.5 76 24.3 88 88 SE 6 9 30.04 1017 10 16 0.00 0.00
10:55 pm 22:55 Clear 79 26.3 75 24 87 87 SSE 6 9 30.04 1017 10 16 0.00 0.00
11:15 pm 23:15 Clear 79 26 75 23.9 88 88 SSE 7 11 30.04 1017 10 16 0.00 0.00
11:35 pm 23:35 Clear 79 26.3 75 24.1 88 88 SSE 6 9 30.03 1017 10 16 0.00 0.00
11:55 pm 23:55 Clear 78 25.8 75 24 90 90 SSE 6 9 30.04 1017 10 16 0.00 0.00

Powered by AerisWeather